www.pogodaiklimat.ru

Погода и климат >> Архив погоды >> Перу >> Tarapoto


ПОГОДА в Tarapoto

  • Прогноз погоды в Tarapoto
  • Монитор погоды в Tarapoto
  • Климат города

АРХИВ ПОГОДЫ в Tarapoto

Время (UTC), дата Ветер
(напр.,м/с)
 
Видим.   Явления Облачность Т
(С)
Тd
(С)
f
(%)
Тe
(С)
Тes
(С)
Комфортность P
(гПа)
Po
(гПа)
Тmin
(С)
Tmax
(С)
R
(мм)
R24
(мм)
S
(см)
15 13.09 ЮЗ 2 8000 м 3/3 450 м
[Sc]
+27.7 +21.4 69 +35 +47 очень
душно
1011.9 983.2
21 13.09 В 4 10 км 8/4 600 м
[Cu hum Ac trans]
+32.6 +22.4 55 +42 +43 опасность
перегрева
1003.7 975.7
00 14.09 Ю 2 10 км 4/4 600 м
[Sc]
+28.4 +20.3 62 +35 +35 очень
душно
1005.3 976.8 +37.3
03 14.09 З 2 10 км 3/3 600 м
[Cu hum]
+25.1 +22.5 86 +33 +33 очень
душно
1008.3 979.5
12 14.09 В 1 5000 м дымка 10/4 300 м
[St Ac trans]
+22.0 +21.3 96 +29 +29 очень
душно
1010.9 981.7 +21.0
15 14.09 ЮВ 2 8000 м мгла 9/4 450 м
[Cu hum Ac trans]
+28.2 +22.3 70 +37 +42 очень
душно
1011.8 983.1
18 14.09 СЗ 2 9000 м мгла {туман} 10/4 450 м
[Cu med, cong Ac trans]
+31.3 +22.5 60 +41 +46 опасность
перегрева
1008.3 980.0
21 14.09 штиль 0 10 км {морось} 8/4 600 м
[Cu hum Ac trans]
+32.2 +22.3 56 +41 +44 опасность
перегрева
1003.8 975.7
00 15.09 СВ 2 10 км {морось} 4/4 600 м
[Sc]
+28.1 +23.0 74 +38 +38 очень
душно
1005.0 976.5 +32.5
03 15.09 штиль 0 10 км 5/1 750 м
[Cu hum Ac trans]
+25.4 +22.2 82 +33 +33 очень
душно
1008.5 979.7
12 15.09 штиль 0 6000 м 8/4 360 м
[Cu hum]
+22.9 +22.1 95 +31 +32 очень
душно
1009.4 980.3 +22.5
15 15.09 штиль 0 8000 м 10/10 450 м
[St]
+28.9 +22.3 68 +38 +38 очень
душно
1011.8 983.2
18 15.09 В 2 10 км 8/8 600 м
[Cu med, cong]
+26.9 +21.8 74 +35 +35 очень
душно
1008.4 980.3
21 15.09 ЮВ 3 2500 м слабая морось 10/6 360 м
[Sc As op]
+22.6 +20.9 90 +30 +30 очень
душно
1011.1 982.0
00 16.09 штиль 0 5000 м слабый дождь 10/5 450 м
[Sc As op]
+21.7 +21.2 97 +28 +28 душно 1011.5 982.3 +33.3 15
03 16.09 штиль 0 10 км {дождь} 10/4 450 м
[Sc As trans]
+21.8 +21.3 97 +28 +28 душно 1012.1 982.9
12 16.09 ЮЗ 2 6000 м дымка 10/8 300 м
[St As trans]
+22.2 +21.2 94 +29 +29 очень
душно
1012.8 983.6 +21.5 17
15 16.09 ЮВ 2 10 км 5/5 450 м
[Cu med, cong]
+27.0 +21.6 72 +34 +43 очень
душно
1013.6 984.8
18 16.09 ЮЗ 2 10 км 3/3 600 м
[Cu hum]
+31.0 +21.7 58 +39 +55 опасность
солнечного
удара
1010.0 981.6
21 16.09 С 2 10 км 4/4 750 м
[Cu hum]
+33.1 +20.9 49 +40 +44 очень
душно
1006.4 978.3
00 17.09 С 2 10 км 4/4 750 м
[Cu hum]
+29.2 +20.3 59 +36 +36 очень
душно
1008.2 979.7 +33.7
15 17.09 Ю 2 10 км 4/4 600 м
[Cu hum]
+28.2 +22.1 70 +37 +47 очень
душно
1013.1 984.4
18 17.09 З 2 10 км 4/4 600 м
[Cu med, cong]
+34.1 +22.1 50 +43 +55 опасность
перегрева
1008.8 980.7
21 17.09 З 3 10 км 6/3 300 м
[Cu med, cong Ac trans]
+31.0 +21.7 58 +39 +42 очень
душно
1006.0 977.8
00 18.09 СВ 3 10 км 3/3 750 м
[Cu hum]
+28.4 +21.8 67 +36 +36 очень
душно
1008.1 979.5 +34.8
12 18.09 нст 1 10 км 10/4 600 м
[Sc Ac trans]
+23.4 +22.6 95 +32 +33 очень
душно
1012.8 983.7 +22.3
15 18.09 Ю 2 10 км 8/4 600 м
[Cu med, cong Ac trans]
+31.5 +22.2 58 +41 +47 опасность
перегрева
1012.8 984.4
18 18.09 СЗ 2 10 км 10/4 600 м
[Cu med, cong Ac trans]
+32.8 +21.9 53 +41 +47 опасность
перегрева
1009.2 981.0
21 18.09 В 4 10 км 5/1 750 м
[Cu hum Ac trans]
+32.1 +22.1 56 +41 +44 опасность
перегрева
1005.4 977.2
00 19.09 штиль 0 10 км 3/3 750 м
[Cu hum]
+30.0 +21.3 60 +38 +38 очень
душно
1006.1 977.7 +34.1
12 19.09 штиль 0 10 км 1/1 900 м
[Cu hum]
+22.6 +22.0 96 +30 +32 очень
душно
1011.5 982.3 +21.6
15 19.09 штиль 0 10 км 1/1 600 м
[Cu hum]
+30.4 +21.9 60 +39 +58 опасность
солнечного
удара
1012.3 983.8
18 19.09 СЗ 3 10 км 4/4 600 м
[Cu hum]
+34.9 +20.8 44 +42 +52 опасность
перегрева
1009.1 981.1
21 19.09 С 5 10 км 4/4 600 м
[Cu hum]
+34.5 +21.1 46 +42 +44 опасность
перегрева
1004.9 977.0
00 20.09 Ю 1 10 км 1/1 900 м
[Cu hum]
+28.7 +20.9 63 +36 +36 очень
душно
1007.5 979.0 +36.0
03 20.09 Ю 1 10 км 1/1 900 м
[Cu hum]
+25.9 +22.5 82 +34 +34 очень
душно
1010.1 981.3
12 20.09 штиль 0 10 км 4/4 750 м
[Cu hum]
+23.0 +22.2 95 +31 +32 очень
душно
1012.1 983.0 +22.2

 

Местоположение метеостанции Tarapoto (Перу): широта -6.50 долгота -76.36 высота над уровнем моря 282 м.

В архиве по умолчанию представлена погода в Tarapoto за последнюю неделю. Архивные данные за месяц целиком и за предыдущие месяцы, начиная с января 2011 года, Вы можете получить, выбрав интересующий диапазон дат из раскрывающегося списка и нажав кнопку "Ввод!".


*Определитесь, кто Вы:
робот инопланетянин человек

Внимание! Время в таблицах - всемирное. Для получения местного времени необходимо прибавить поправку, которая в Tarapoto равна -5 ч.

Смотрите также архив погоды в соседних городах и на ближайших метеорологических станциях:

Погода в Yurimaguas (Перу) (74 км)
Погода в Juanjui (Перу) (84 км)
Погода в Chachapoyas (Перу) (168 км)
Погода в Cajamarca (Перу) (242 км)
Погода в Pucallpa (Перу) (288 км)
Погода в Tingo Maria (Перу) (312 км)
Погода в Anta (Перу) (345 км)
Погода в Trujillo (Перу) (350 км)
Погода в Huanuco (Перу) (375 км)
Погода в Chimbote (Перу) (376 км)

Пояснения к столбцам:

Ветер - указаны скорость ветра в м/с - средняя за 10 мин, порывы в срок и между сроками (в фигурных скобках) и направление, откуда дует ветер: С - северный, СВ - северо-восточный, В - восточный, ЮВ - юго-восточный, Ю - южный, ЮЗ - юго-западный, З - западный, СЗ - северо-западный.
Видимость - горизонтальная дальность видимости в метрах или километрах. При видимости от 1 до 10 км при отсутствии осадков обычно наблюдается дымка, при ухудшении видимости до 1 км и менее - туман. В сухую погоду видимость может ухудшаться дымом, пылью или мглою.
Явления - указаны атмосферные явления, наблюдавшиеся в срок или в последний час перед сроком; фигурными скобками обозначены явления, наблюдавшиеся между сроками (за 1-3 часа до срока); квадратными скобками обозначены град или гололедные отложения с указанием их диаметра в мм.
Облачность - указаны через наклонную черту общая и нижняя облачность в баллах и высота нижней границы облаков в метрах; квадратными скобками обозначены формы облаков: Ci - перистые, Cs - перисто-слоистые, Cc - перисто-кучевые, Ac - высококучевые, As - высокослоистые, Sc - слоисто-кучевые, Ns - слоисто-дождевые, Cu - кучевые, Cb - кучево-дождевые. Подробнее классификацию облаков см. в Атласе облаков (PDF).
T - Температура воздуха - температура, измеренная на высоте 2 м над землей.
Td - Температура точки росы - температура, при понижении до которой содержащийся в воздухе водяной пар достигнет насыщения.
f - Относительная влажность воздуха - влажноcть воздуха, измеренная на высоте 2 м над землей.
Te - Эффективная температура - температура, которую ощущает одетый по сезону человек в тени. Характеристика душности погоды. При расчете учитывается влияние влажности воздуха и скорости ветра на теплоощущения человека.
Tes - Эффективная температура на солнце - температура, которую ощущает человек, с поправкой на солнечный нагрев. Характеристика знойности погоды. Зависит от высоты солнца над горизонтом, облачности и скорости ветра. Ночью, в пасмурную погоду, а также при ветре 12 м/с и более поправка равна нулю.
P - Атмосферное давление - приведенное к уровню моря атмосферное давление.
Po - Атмосферное давление - измеренное на уровне метеостанции атмосферное давление.
Tmin - Минимальная температура - минимум температуры воздуха на высоте 2 м над землей.
Tmax - Максимальная температура - максимум температуры воздуха на высоте 2 м над землей.
R - Количество осадков - Количество выпавших осадков за период времени, мм. При наведении курсора мыши на число - период времени, за который выпало указанное количество осадков.
R24 - Количество осадков - Количество выпавших осадков за 24 часа, мм.
S - Снежный покров - Высота снежного покрова, см. При наведении курсора мыши на число - состояние снежного покрова и степень покрытия местности в баллах.